[[{"header":{"parameterUnit":"m.s-1","parameterCategory":1,"la1":30.2991,"la2":30.254,"lo1":-89.0895,"lo2":-89.0444,"dy":0.0017,"dx":0.0017,"nx":28,"ny":28,"refTime":"2025-09-16T09:00:00:Z","depth":0,"parameterNumber":2,"parameterNumberName":"U-component_of_WINDS"},"data":[0,0,0,0,0,0,0,0,0,0,0,0,0,0,0,0,0,0,0,0,0,0,0,0,0,0,0,0,0,0,0,0,0,0,0,0,0,0,0,0,0,0,0,0,0,0,0,0,0,0,0,0,0,0,0,0,0,0,1.245,1.2449,0,1.2391,1.2391,1.239,1.2375,1.2375,1.2376,1.2376,1.2314,1.2313,1.2311,0,0,0,0,0,0,0,0,0,0,0,0,0,1.2547,1.2545,1.245,1.2449,1.2448,1.2392,1.2391,1.239,1.2375,1.2375,1.2376,1.2376,1.2315,1.2313,1.231,0,0,0,0,0,0,0,0,0,0,0,0,0,1.2498,1.2545,1.245,1.2434,1.2432,1.2392,1.2391,1.239,1.2375,1.2375,1.2376,1.2376,1.2316,1.2313,1.231,1.2281,0,0,1.2301,1.23,0,0,0,0,0,0,0,0,1.2501,1.2495,1.2437,1.2435,1.2433,1.2391,1.2402,1.2353,1.2375,1.2397,1.2376,1.2377,1.2339,1.2335,1.2322,1.2278,1.2275,1.2301,1.2299,1.2298,1.2297,0,0,0,0,0,0,0,1.2504,1.2497,1.2427,1.2436,1.2434,1.2429,1.2423,1.2393,1.2366,1.2395,1.2393,1.2387,1.2338,1.2325,1.2321,1.2274,1.2301,1.2298,1.2296,1.2295,1.2203,1.2202,0,0,0,0,0,0,1.2511,1.25,1.2429,1.2425,1.2469,1.2427,1.242,1.2404,1.2366,1.2361,1.2386,1.2386,1.233,1.2324,1.2319,1.2282,1.2298,1.2295,1.2293,1.2203,1.2203,1.2202,0,0,0,0,0,0,1.2513,1.2504,1.2431,1.2462,1.2452,1.2425,1.2407,1.2402,1.2389,1.236,1.2355,1.2378,1.233,1.2323,1.229,1.2279,1.2294,1.2291,1.2204,1.2203,1.2202,1.2208,0,0,0,0,0,0,1.2516,1.2505,1.2494,1.2462,1.2451,1.2404,1.2406,1.2401,1.2385,1.2384,1.2351,1.2346,1.233,1.2295,1.2287,1.2276,1.2289,1.2205,1.2204,1.2203,1.2209,1.2207,1.2206,0,0,0,0,0,1.2519,1.2498,1.2494,1.2485,1.2436,1.2404,1.2397,1.238,1.2384,1.2372,1.2353,1.2347,1.2282,1.2292,1.2283,1.227,1.2206,1.2204,1.2203,1.2209,1.2208,1.2206,0,0,0,0,0,0,1.2529,1.2493,1.2488,1.2456,1.2433,1.2401,1.2386,1.2379,1.2354,1.2355,1.2334,1.2327,1.2296,1.228,1.2291,1.224,1.2244,1.224,1.2252,1.225,1.2249,1.2253,1.2286,0,0,0,0,0,1.2527,1.2504,1.2474,1.2448,1.2437,1.2414,1.2399,1.2388,1.2363,1.2353,1.2331,1.2307,1.2281,1.2265,1.2239,1.2206,1.2199,1.2193,1.2192,1.2191,1.2188,1.217,1.2167,1.2197,1.2197,1.2197,0,0,1.2523,1.2501,1.2488,1.245,1.2431,1.2407,1.2406,1.238,1.2362,1.2349,1.2317,1.2301,1.2272,1.2239,1.2224,1.2225,1.2178,1.2189,1.2189,1.2186,1.2168,1.2165,1.2162,1.2196,1.2196,1.2196,0,0,1.2505,1.2486,1.2462,1.2443,1.2415,1.2399,1.2394,1.2363,1.2352,1.232,1.2309,1.2287,1.2243,1.2223,1.2207,1.2181,1.2174,1.2173,1.2167,1.2149,1.2146,1.2144,1.2135,1.2132,1.2171,1.2171,1.2171,0,1.2503,1.2468,1.2451,1.2426,1.241,1.2397,1.2373,1.2355,1.232,1.2308,1.231,1.2255,1.2235,1.2197,1.2191,1.2179,1.2171,1.2177,1.2148,1.2146,1.2144,1.2134,1.2131,1.2171,1.2171,1.2171,1.2171,0,1.2468,1.2443,1.2427,1.2394,1.2376,1.2351,1.233,1.2314,1.2305,1.2289,1.2256,1.2232,1.2201,1.2192,1.2182,1.2153,1.2154,1.2152,1.2156,1.2141,1.2132,1.2128,1.2171,1.2171,1.2171,1.2171,0,0,1.2453,1.2411,1.2406,1.239,1.2358,1.2338,1.2313,1.2284,1.227,1.2246,1.2224,1.2187,1.2186,1.2168,1.2156,1.214,1.2121,1.214,1.2139,1.2137,1.2087,1.2088,1.2084,1.2116,1.2115,1.2115,1.2089,0,1.243,1.2386,1.237,1.2333,1.231,1.2298,1.2276,1.2254,1.2239,1.2216,1.2199,1.2173,1.2173,1.2162,1.2146,1.2127,1.211,1.2128,1.2095,1.2094,1.2103,1.208,1.2081,1.2058,1.2085,1.2085,1.2084,0,1.2398,1.2374,1.2335,1.2306,1.2295,1.2276,1.2248,1.2227,1.2201,1.2191,1.2171,1.216,1.2133,1.2138,1.2101,1.2113,1.2099,1.2087,1.2086,1.2082,1.2088,1.2075,1.205,1.2047,1.2079,1.2079,1.208,0,1.2391,1.2349,1.232,1.2308,1.2273,1.226,1.2244,1.2219,1.2202,1.2178,1.2167,1.2139,1.2124,1.2102,1.2084,1.2089,1.2048,1.2051,1.2038,1.2038,1.2029,1.203,1.2002,1.202,1.2021,1.2021,1.2021,0,1.2367,1.2344,1.2317,1.2299,1.2273,1.2255,1.2229,1.2212,1.219,1.2169,1.2156,1.2136,1.2114,1.2091,1.2076,1.2047,1.204,1.2031,1.2027,1.2032,1.2033,1.2022,1.2023,1.202,1.202,1.202,1.202,0,1.2355,1.2336,1.2304,1.2274,1.2266,1.2248,1.2221,1.2204,1.2188,1.2161,1.2153,1.2128,1.2101,1.208,1.2044,1.2035,1.2003,1.1999,1.2012,1.201,1.1998,1.1999,1.1961,1.1955,1.1978,1.1978,1.1978,0,1.2341,1.2323,1.2291,1.2276,1.2261,1.2237,1.2221,1.2202,1.2185,1.2154,1.214,1.2111,1.2088,1.2044,1.2022,1.1994,1.199,1.1978,1.1985,1.199,1.1989,1.199,1.1988,1.1977,1.1977,1.1977,1.1977,0,1.2318,1.231,1.2287,1.226,1.2241,1.2219,1.2196,1.2185,1.2162,1.2143,1.2115,1.2097,1.206,1.2032,1.2002,1.1985,1.1977,1.1975,1.197,1.1975,1.1983,1.1978,1.2009,1.1976,1.1976,1.1976,1.1976,1.1976,1.2304,1.2288,1.2263,1.2237,1.2219,1.2198,1.218,1.2162,1.2139,1.2108,1.2098,1.2069,1.2043,1.2003,1.1986,1.1962,1.1962,1.1956,1.1954,1.1953,1.1953,1.1987,1.1957,1.1957,1.1957,1.1957,1.1957,0,1.2281,1.2265,1.2241,1.2211,1.2191,1.2185,1.216,1.2144,1.2118,1.2095,1.2072,1.204,1.2012,1.1988,1.196,1.1945,1.1941,1.1938,1.1939,1.1935,1.1954,1.1961,1.1943,1.1943,1.1943,1.1943,1.1943,1.1943,1.2266,1.2238,1.2227,1.2189,1.2172,1.2144,1.213,1.2111,1.2093,1.2057,1.2035,1.202,1.1996,1.1966,1.194,1.1933,1.1923,1.1922,1.1914,1.1932,1.1934,1.1936,1.1942,1.192,1.192,1.1897,1.1897,1.1897]},{"header":{"parameterUnit":"m.s-1","parameterCategory":1,"la1":30.2991,"la2":30.254,"lo1":-89.0895,"lo2":-89.0444,"dy":0.0017,"dx":0.0017,"nx":28,"ny":28,"refTime":"2025-09-16T09:00:00:Z","depth":0,"parameterNumber":3,"parameterNumberName":"V-component_of_WINDS"},"data":[0,0,0,0,0,0,0,0,0,0,0,0,0,0,0,0,0,0,0,0,0,0,0,0,0,0,0,0,0,0,0,0,0,0,0,0,0,0,0,0,0,0,0,0,0,0,0,0,0,0,0,0,0,0,0,0,0,0,0.0288,0.0288,0,0.0239,0.0239,0.0238,0.0243,0.0243,0.0244,0.0245,0.0192,0.019,0.0188,0,0,0,0,0,0,0,0,0,0,0,0,0,0.0383,0.0382,0.0288,0.0288,0.0287,0.0239,0.0239,0.0238,0.0243,0.0243,0.0244,0.0245,0.0193,0.019,0.0188,0,0,0,0,0,0,0,0,0,0,0,0,0,0.0339,0.0381,0.0288,0.0284,0.0283,0.0239,0.0239,0.0238,0.0242,0.0243,0.0245,0.0246,0.0194,0.0191,0.0188,0.0145,0,0,0.0178,0.0176,0,0,0,0,0,0,0,0,0.0341,0.0335,0.0285,0.0284,0.0283,0.0248,0.0253,0.0207,0.0242,0.0258,0.0245,0.0246,0.021,0.0205,0.0194,0.0142,0.014,0.0178,0.0176,0.0174,0.0173,0,0,0,0,0,0,0,0.0345,0.0338,0.0269,0.0284,0.0283,0.0283,0.0278,0.0244,0.0228,0.0256,0.0257,0.0251,0.0209,0.0197,0.0192,0.0139,0.0178,0.0175,0.0173,0.0172,0.005,0.0048,0,0,0,0,0,0,0.0349,0.034,0.027,0.0267,0.0316,0.028,0.0275,0.0258,0.0228,0.0225,0.025,0.0251,0.0201,0.0196,0.0191,0.0138,0.0174,0.0171,0.0169,0.0051,0.0049,0.0048,0,0,0,0,0,0,0.0351,0.0343,0.0272,0.0304,0.0295,0.0278,0.0259,0.0257,0.0244,0.0223,0.022,0.024,0.0202,0.0195,0.0156,0.0136,0.017,0.0167,0.0052,0.005,0.0048,0.0033,0,0,0,0,0,0,0.0354,0.0344,0.0328,0.0303,0.0293,0.024,0.0258,0.0255,0.0239,0.024,0.0213,0.021,0.0202,0.0161,0.0153,0.0132,0.0165,0.0054,0.0052,0.0049,0.0035,0.003,0.0026,0,0,0,0,0,0.0357,0.0325,0.0327,0.0319,0.0273,0.0238,0.0232,0.0225,0.0237,0.0221,0.0207,0.0211,0.014,0.0157,0.0148,0.0126,0.0055,0.0052,0.0049,0.0037,0.0031,0.0027,0,0,0,0,0,0,0.0347,0.0322,0.0324,0.0283,0.0263,0.0239,0.0219,0.022,0.0196,0.0198,0.0189,0.0183,0.0144,0.0131,0.0151,0.0083,0.0099,0.0094,0.0092,0.0087,0.0083,0.0086,0.0162,0,0,0,0,0,0.034,0.0315,0.0294,0.026,0.025,0.0236,0.022,0.0217,0.0195,0.0186,0.017,0.0149,0.0121,0.0103,0.0077,0.0033,0.0027,0.0014,0.0009,0.0006,0.0002,-0.0024,-0.003,0.0038,0.0038,0.0038,0,0,0.0326,0.0309,0.0293,0.0257,0.0241,0.0214,0.0229,0.02,0.0179,0.0182,0.0144,0.0131,0.0107,0.0065,0.0045,0.0053,-0.0019,0.0002,-0.0,-0.0003,-0.0028,-0.0034,-0.004,0.0036,0.0036,0.0037,0,0,0.0285,0.027,0.024,0.0223,0.0199,0.019,0.0183,0.0159,0.015,0.0113,0.0114,0.0089,0.0042,0.0024,0.0009,-0.0039,-0.0038,-0.0048,-0.007,-0.0095,-0.01,-0.0105,-0.0123,-0.013,-0.0052,-0.0052,-0.0052,0,0.027,0.023,0.0224,0.0194,0.0178,0.018,0.0148,0.0132,0.01,0.0089,0.0098,0.0039,0.0022,-0.0025,-0.0036,-0.0048,-0.0058,-0.0045,-0.0099,-0.0104,-0.0108,-0.0126,-0.0133,-0.0053,-0.0053,-0.0053,-0.0053,0,0.0212,0.0184,0.0162,0.0132,0.0113,0.0082,0.0071,0.0052,0.005,0.0039,0.0,-0.002,-0.005,-0.0062,-0.0064,-0.0109,-0.0104,-0.0097,-0.0081,-0.0116,-0.0133,-0.0139,-0.0055,-0.0054,-0.0054,-0.0054,0,0,0.0163,0.013,0.0122,0.0107,0.008,0.0058,0.0027,-0.0002,-0.0018,-0.004,-0.0067,-0.0107,-0.0101,-0.0118,-0.0123,-0.0145,-0.0183,-0.0135,-0.0136,-0.0144,-0.0235,-0.0241,-0.0248,-0.0182,-0.0183,-0.0184,-0.0233,0,0.0119,0.0066,0.0059,0.0011,-0.0016,-0.0015,-0.0042,-0.0062,-0.0073,-0.0098,-0.011,-0.0138,-0.0127,-0.0138,-0.0159,-0.0174,-0.0201,-0.017,-0.0208,-0.0209,-0.0202,-0.0257,-0.0263,-0.0308,-0.024,-0.0241,-0.0242,0,0.0061,0.0037,-0.0013,-0.0038,-0.0049,-0.0073,-0.0101,-0.0124,-0.0148,-0.0154,-0.0174,-0.0176,-0.0209,-0.0191,-0.0238,-0.0216,-0.0232,-0.0242,-0.0244,-0.0248,-0.0228,-0.0264,-0.0323,-0.033,-0.0252,-0.0251,-0.025,0,0.003,-0.0015,-0.0051,-0.0063,-0.0092,-0.0109,-0.0122,-0.0144,-0.0162,-0.0187,-0.0198,-0.0227,-0.0243,-0.0265,-0.0276,-0.0261,-0.0322,-0.0305,-0.0329,-0.0329,-0.0343,-0.0342,-0.0406,-0.0352,-0.0351,-0.0351,-0.0351,0,-0.0019,-0.0051,-0.0066,-0.0088,-0.0124,-0.0132,-0.0167,-0.0179,-0.0199,-0.0225,-0.0226,-0.025,-0.0262,-0.0288,-0.0297,-0.0335,-0.0342,-0.0349,-0.0351,-0.0349,-0.0348,-0.036,-0.0358,-0.0353,-0.0353,-0.0352,-0.0352,0,-0.006,-0.0072,-0.0111,-0.0135,-0.0142,-0.0167,-0.0189,-0.0211,-0.0222,-0.0254,-0.0262,-0.028,-0.0311,-0.0323,-0.0362,-0.0367,-0.0411,-0.0411,-0.0403,-0.0404,-0.0429,-0.0426,-0.0504,-0.0515,-0.0452,-0.0452,-0.0453,0,-0.0091,-0.0115,-0.0142,-0.0159,-0.0172,-0.02,-0.0217,-0.0227,-0.0245,-0.0274,-0.0293,-0.0324,-0.035,-0.04,-0.0417,-0.0446,-0.0447,-0.0472,-0.0451,-0.0449,-0.0449,-0.0447,-0.045,-0.0476,-0.0476,-0.0477,-0.0477,0,-0.0145,-0.0149,-0.0175,-0.0202,-0.0224,-0.0246,-0.0268,-0.0282,-0.0295,-0.0316,-0.0348,-0.0367,-0.0406,-0.0438,-0.0469,-0.0483,-0.0483,-0.0484,-0.0491,-0.049,-0.0485,-0.0489,-0.0415,-0.0482,-0.0481,-0.0481,-0.0481,-0.0481,-0.0183,-0.0204,-0.0227,-0.0255,-0.0273,-0.0293,-0.0316,-0.0329,-0.0355,-0.0388,-0.0391,-0.0426,-0.045,-0.0491,-0.0507,-0.0534,-0.0528,-0.0539,-0.0541,-0.0544,-0.0546,-0.048,-0.054,-0.054,-0.054,-0.054,-0.054,0,-0.0237,-0.0252,-0.0278,-0.0308,-0.0331,-0.0328,-0.0352,-0.0372,-0.0402,-0.0424,-0.0449,-0.0486,-0.0516,-0.0535,-0.0566,-0.0585,-0.0586,-0.0593,-0.0592,-0.0596,-0.055,-0.0541,-0.0592,-0.0592,-0.0592,-0.0592,-0.0592,-0.0592,-0.0268,-0.0305,-0.0313,-0.0359,-0.0373,-0.0406,-0.0421,-0.044,-0.0458,-0.0499,-0.0524,-0.0536,-0.0557,-0.059,-0.0618,-0.0623,-0.0635,-0.0643,-0.0647,-0.0604,-0.0599,-0.0594,-0.0585,-0.0645,-0.0645,-0.0691,-0.0692,-0.0692]}]]